Terminal Aerodrome Forecast
Issued by NWS Omaha/Valley, NE

Home | Current Version | Previous Version | Text Only | Print | Product List | Glossary On
Versions: 1 2 3 4 5 6 7 8 9 10 11 12 13 14 15 16 17 18 19 20 21 22 23 24 25
000
FTUS43 KOAX 302008 AAA
TAFOMA
TAF AMD
KOMA 302008Z 3020/0118 18012KT 6SM -SHRA SCT025 OVC060
      TEMPO 3020/3023 VRB15G25KT 2SM TSRA OVC025CB
     FM302300 15008KT P6SM SCT015 BKN050
     FM010400 16010KT 5SM -SHRA BR OVC040
      TEMPO 0104/0108 2SM TSRA BR OVC025CB
     FM010900 15008KT 4SM BR OVC015
      TEMPO 0110/0114 2SM BR BKN007=

USA.gov is the U.S. government's official web portal to all federal, state and local government web resources and services.